User: anonymous
Location: Brno
(49.2000°N, 16.6330°E)
Time: 11:28:22
(UTC+02:00)
Language:

BREEZE M DEB (TANK) - Orbit

View from above orbital plane
View from above orbital plane
View from above satellite
View from above satellite

Ground track
Ground track

The orbit data is extracted from the following two-line orbital elements,

1 28359U 04022B   14256.70030137  .00003698  00000-0  55886-3 0  2482
2 28359 049.5271 326.3868 4709261 096.6106 029.8402 06.11682453223121
Epoch (UTC): 13 September 2014 16:48:26
Eccentricity: 0.4709261
inclination: 49.5271°
perigee height: 304 km
apogee height: 12199 km
right ascension of ascending node: 326.3868°
argument of perigee: 96.6106°
revolutions per day: 6.11682453
mean anomaly at epoch: 29.8402°
orbit number at epoch: 22312

The dashed part of the orbit path shows where the satellite is in the earth's shadow,  

DLR